Regional Weather Roundup
Issued by NWS Goodland, KS

Home | Current Version | Previous Version | Graphics & Text | Print | Product List | Glossary On
Versions: 1 2 3 4 5 6 7 8 9 10 11 12 13 14 15 16 17 18 19 20 21 22 23 24 25 26 27 28 29 30 31 32 33 34 35 36 37 38 39 40 41 42 43 44 45 46 47 48 49 50
000
ASUS43 KGLD 211459
RWRGLD

GOODLAND FORECAST AREA HOURLY WEATHER ROUNDUP
NATIONAL WEATHER SERVICE GOODLAND KS
900 AM MDT TUE OCT 21 2014

...OFFICIAL OBSERVATIONS...

CITY           SKY/WX    TMP DP  RH WIND       PRES   REMARKS
GOODLAND KS    FOG       55  55 100 S20       30.07S VSB 1/4
HILL CITY KS   MOSUNNY   53  45  74 CALM      30.10R
IMPERIAL NEB   PTSUNNY   55  52  89 S12G21    30.04R FOG
MCCOOK NEB     SUNNY     54  43  66 SE6       30.07S
AKRON CO       SUNNY     57  47  69 S9        30.02R
BURLINGTON CO  SUNNY     58  53  84 S16       30.07R
LIMON CO       SUNNY     46  46 100 SE3       30.09S
$$

...UNOFFICIAL OBSERVATIONS...

CITY           SKY/WX    TMP DP  RH WIND       PRES   REMARKS
COLBY KS       CLOUDY    57  55  94 S12       30.09S
GOVE KS          N/A     50  32  50 MISG        N/A
NORTON KS      SUNNY     54  43  66 CALM      30.08R
TRENTON NEB      N/A     56  32  40 S12         N/A
$$



USA.gov is the U.S. government's official web portal to all federal, state and local government web resources and services.